Regional Weather Roundup
Issued by NWS Mobile, AL

Home | Current Version | Previous Version | Text Only | Print | Product List | Glossary On
Versions: 1 2 3 4 5 6 7 8 9 10 11 12 13 14 15 16 17 18 19 20 21 22 23 24 25 26 27 28 29 30 31 32 33 34 35 36 37 38 39 40 41 42 43 44 45 46 47 48 49 50
000
ASUS44 KMOB 211510
RWRMOB
REGIONAL WEATHER ROUNDUP
NATIONAL WEATHER SERVICE MOBILE AL
1000 AM CDT THU AUG 21 2014

NOTE: "FAIR" INDICATES FEW OR NO CLOUDS BELOW 12,000 FEET WITH NO
      SIGNIFICANT WEATHER AND/OR OBSTRUCTIONS TO VISIBILITY.

  * THESE STATIONS ARE PART OF THE UNIVERSITY OF SOUTH ALABAMA
    MESONET AND ARE NOT UNDER NWS OR FAA QUALITY CONTROL.

ALZ061>064-211600-
COASTAL ALABAMA

CITY           SKY/WX    TMP DP  RH WIND       PRES   REMARKS
MOBILE REG APT PTSUNNY   86  76  71 NW7       30.17  HX  96
BROOKLEY FIELD MOSUNNY   86  77  74 VRB5      30.17R HX  97
USA CAMPUS*    NOT AVBL
DOG RIVER*     NOT AVBL


CITY           SKY/WX    TMP DP  RH WIND       PRES   REMARKS
MOUNT VERNON*  NOT AVBL
SARALAND*      NOT AVBL
BAY MINETTE*   NOT AVBL
LOXLEY*        NOT AVBL
ROBERTSDALE*   NOT AVBL
FAIRHOPE*      NOT AVBL
ELBERTA*       NOT AVBL
FOLEY*         NOT AVBL
GRAND BAY*     NOT AVBL
DAUPHIN ISLND* NOT AVBL
BON SCOUR NWR* NOT AVBL
GULF SHORES    MOSUNNY   85  77  77 CALM      30.15S HX  95

$$

ALZ051>060-211600-
INTERIOR SOUTHWEST AND SOUTH CENTRAL ALABAMA

CITY           SKY/WX    TMP DP  RH WIND       PRES   REMARKS
GREENVILLE     SUNNY     87  73  62 N8        30.15F
EVERGREEN      SUNNY     88  75  65 VRB7      30.16S HX  97
CASTLEBERRY*   NOT AVBL
ATMORE*        NOT AVBL
DIXIE*         NOT AVBL
ANDALUSIA/OPP  SUNNY     90  75  61 NW7       30.16S HX 100
ANDALUSIA*     NOT AVBL
FLORALA APT    SUNNY     87  76  69 VRB3      30.18S HX  97
FLORALA*       NOT AVBL

$$

FLZ001>006-211600-
WESTERN FLORIDA PANHANDLE

CITY           SKY/WX    TMP DP  RH WIND       PRES   REMARKS
PENSACOLA      MOSUNNY   87  75  67 NW8       30.15S HX  96
NAS PENSACOLA  PTSUNNY   87  77  72 NW7       30.15R HX  99
MILTON         PTSUNNY   87  76  69 NW8       30.16S HX  97
WHTNG S FIELD  MOSUNNY   88  76  67 NW9       30.16S HX  99


CITY           SKY/WX    TMP DP  RH WIND       PRES   REMARKS
WALNUT HILL*   NOT AVBL
JAY*           NOT AVBL
DUKE FIELD     MOSUNNY   87  79  77 NW7       30.14F HX 100
CRESTVIEW      SUNNY     88  75  65 N8        30.17S HX  97
VALPARAISO     MOSUNNY   87  77  72 NW7       30.15  HX  98
DESTIN         SUNNY     89  78  70 N6        30.15S HX 103

$$

MSZ076-079-211600-
INTERIOR SOUTHEAST MISSISSIPPI

CITY           SKY/WX    TMP DP  RH WIND       PRES   REMARKS
LEAKESVILLE*   NOT AVBL
AGRICOLA*      NOT AVBL

$$

MARINE OBSERVATIONS

STATION/POSITION TIME  TEMP    WIND        PRES    WAVE
                       AIR SEA DIR/SP/G            HT/PER
                 (UTC) (F)     (DEG/KT/KT) (MB)    (FT/S)
PASCAGOULA       1500   87     340/  5/  6 1020.9R
PETIT BOIS ISLND 1500   85     360/  5/  6 1021.4S
GRAND BAY        1400   83     330/  6     1022.0S
KATRINA CUT      1400   83     360/  7     1021.7R
CEDAR POINT      1400   83     340/  5     1021.0R
E DAUPHIN ISLAND 1500   83      10/  5/  6 1021.1R
MIDDLE BAY LIGHT 1400   86     360/  6     1020.6S
USCG MOBILE BAY  1500   86 86  310/  1/  5 1020.0F
STATE DOCKS      1500   90 86              1020.8S
MEAHER PARK      1400   84     320/  4     1020.3F
WEEKS BAY        1400   82                   N/A
FORT MORGAN      1500   84      30/  7/  8 1020.8R
12 S ORANGE BCH  1500   84 85  350/  6/  8 1021.1R   1/ 5
PENSACOLA BAY    1500   87 87  340/  3/  7 1021.2R
64 S DAUPHIN ISL 1417   85 89  340/  4/  4 1021.3R
67 S FORT MORGAN 1400   86                 1021.0R

$$

SELECTED LOCATIONS ACROSS THE REGION

CITY           SKY/WX    TMP DP  RH WIND       PRES   REMARKS
NEW ORLEANS    PTSUNNY   88  77  69 CALM      30.14R HX 100
GULFPORT       MOSUNNY   87  74  64 CALM      30.14S HX  95
PASCAGOULA AP  SUNNY     88  75  65 N6        30.15S HX  97
PASCAGOULA*    NOT AVBL
HATTIESBURG    SUNNY     87  75  67 CALM      30.16S HX  96
LAUREL         SUNNY     86  72  62 W5        30.17S
MERIDIAN       SUNNY     87  72  60 VRB3      30.15
JACKSON        MOSUNNY   86  75  69 SW5       30.14F HX  95
MONTGOMERY     SUNNY     87  74  64 W5        30.15S HX  95
TROY           SUNNY     88  76  67 NW6       30.16F HX  99
KINSTON*       NOT AVBL
GENEVA*        NOT AVBL
ASHFORD*       NOT AVBL
DOTHAN         SUNNY     86  75  69 NW5       30.19S HX  95
PANAMA CITY    SUNNY     88  76  67 NW7       30.14F HX  99

$$



USA.gov is the U.S. government's official web portal to all federal, state and local government web resources and services.